FIN446 EFOU-EFHK

Flight info

Callsign FIN446
Flight time 0h 48m
Altitude 39000
Route MIKNU Y86 LUSEP
Aircraft A320/M-SDE1E2E3FGIJ1M1RWXYZ/LB1

Departure

Time 2026-05-05 18:59
Airport Oulu Airport (EFOU)

Arrival

Time 2026-05-05 19:47
Airport Helsinki Vantaa Airport (EFHK)
Time Latitude Longitude Altitude Speed Heading
2026-05-05 18:22 64.92801 25.37358 51 ft 0 kts 31°
2026-05-05 18:52 64.92795 25.37349 50 ft 4 kts 30°
2026-05-05 18:53 64.92775 25.37321 48 ft 2 kts 30°
2026-05-05 18:53 64.92756 25.37285 46 ft 4 kts 65°
2026-05-05 18:53 64.92753 25.37228 45 ft 4 kts 107°
2026-05-05 18:53 64.92759 25.37189 47 ft 0 kts 121°
2026-05-05 18:55 64.92753 25.37213 50 ft 6 kts 121°
2026-05-05 18:56 64.92730 25.37302 50 ft 7 kts 121°
2026-05-05 18:56 64.92704 25.37407 48 ft 8 kts 121°
2026-05-05 18:56 64.92673 25.37529 46 ft 9 kts 120°
2026-05-05 18:56 64.92638 25.37669 46 ft 11 kts 120°
2026-05-05 18:57 64.92608 25.37786 45 ft 8 kts 121°
2026-05-05 18:57 64.92572 25.37904 43 ft 9 kts 137°
2026-05-05 18:57 64.92511 25.37921 44 ft 9 kts 204°
2026-05-05 18:57 64.92473 25.37785 43 ft 7 kts 245°
2026-05-05 18:58 64.92446 25.37703 44 ft 4 kts 225°
2026-05-05 18:58 64.92448 25.37648 45 ft 5 kts 297°
2026-05-05 18:58 64.92481 25.37517 46 ft 25 kts 301°
2026-05-05 18:58 64.92737 25.36512 54 ft 113 kts 301°
2026-05-05 18:59 64.93057 25.35250 160 ft 148 kts 300°
2026-05-05 18:59 64.93542 25.33069 1052 ft 151 kts 280°
2026-05-05 18:59 64.93293 25.30656 1984 ft 164 kts 236°
2026-05-05 18:59 64.92224 25.29193 2630 ft 202 kts 195°
2026-05-05 19:00 64.90690 25.29418 3269 ft 237 kts 177°
2026-05-05 19:00 64.88971 25.29972 4072 ft 261 kts 177°
2026-05-05 19:00 64.87141 25.30547 5279 ft 267 kts 178°
2026-05-05 19:00 64.85279 25.31131 6517 ft 272 kts 178°
2026-05-05 19:01 64.83404 25.31719 7672 ft 279 kts 177°
2026-05-05 19:01 64.81457 25.32325 8837 ft 285 kts 176°
2026-05-05 19:01 64.79464 25.32943 9941 ft 294 kts 176°
2026-05-05 19:01 64.77348 25.33592 10568 ft 318 kts 175°
2026-05-05 19:02 64.75115 25.34283 11497 ft 327 kts 175°
2026-05-05 19:02 64.72840 25.34991 12601 ft 332 kts 174°
2026-05-05 19:02 64.70533 25.35707 13638 ft 337 kts 174°
2026-05-05 19:02 64.68194 25.36434 14605 ft 341 kts 174°
2026-05-05 19:03 64.65828 25.37168 15596 ft 345 kts 174°
2026-05-05 19:03 64.63433 25.37907 16577 ft 349 kts 174°
2026-05-05 19:03 64.61006 25.38654 17551 ft 352 kts 174°
2026-05-05 19:03 64.58570 25.39403 18459 ft 355 kts 174°
2026-05-05 19:04 64.56110 25.40157 19313 ft 358 kts 173°
2026-05-05 19:04 64.53625 25.40916 20160 ft 362 kts 174°
2026-05-05 19:04 64.51117 25.41680 20989 ft 365 kts 174°
2026-05-05 19:04 64.48583 25.42453 21826 ft 369 kts 173°
2026-05-05 19:05 64.46023 25.43233 22656 ft 374 kts 174°
2026-05-05 19:05 64.43415 25.43678 23422 ft 377 kts 182°
2026-05-05 19:05 64.40811 25.43528 24082 ft 381 kts 183°
2026-05-05 19:05 64.38106 25.43369 24725 ft 386 kts 183°
2026-05-05 19:06 64.35446 25.43226 25339 ft 390 kts 184°
2026-05-05 19:06 64.32712 25.43083 25982 ft 394 kts 185°
2026-05-05 19:06 64.29959 25.42936 26585 ft 398 kts 185°
2026-05-05 19:06 64.27179 25.42787 27187 ft 401 kts 186°
2026-05-05 19:07 64.24383 25.42641 27796 ft 404 kts 186°
2026-05-05 19:07 64.21556 25.42487 28376 ft 408 kts 186°
2026-05-05 19:07 64.18707 25.42329 28939 ft 412 kts 186°
2026-05-05 19:07 64.15828 25.42172 29488 ft 415 kts 187°
2026-05-05 19:08 64.12924 25.42014 29968 ft 419 kts 187°
2026-05-05 19:08 64.09994 25.41857 30392 ft 423 kts 187°
2026-05-05 19:08 64.07033 25.41695 30805 ft 426 kts 187°
2026-05-05 19:08 64.04093 25.41533 31197 ft 430 kts 186°
2026-05-05 19:09 64.01054 25.41370 31604 ft 432 kts 187°
2026-05-05 19:09 63.98084 25.41217 32185 ft 430 kts 187°
2026-05-05 19:09 63.95090 25.41063 32752 ft 430 kts 186°
2026-05-05 19:09 63.92100 25.40904 33305 ft 430 kts 186°
2026-05-05 19:10 63.89113 25.40748 33836 ft 430 kts 186°
2026-05-05 19:10 63.86113 25.40594 34299 ft 430 kts 186°
2026-05-05 19:10 63.83124 25.40438 34744 ft 430 kts 186°
2026-05-05 19:10 63.80136 25.40279 35172 ft 430 kts 186°
2026-05-05 19:11 63.77144 25.40124 35577 ft 430 kts 186°
2026-05-05 19:11 63.74144 25.39972 35986 ft 431 kts 186°
2026-05-05 19:11 63.71140 25.39826 36371 ft 431 kts 186°
2026-05-05 19:11 63.68138 25.39670 36725 ft 431 kts 186°
2026-05-05 19:12 63.65140 25.39510 37107 ft 431 kts 187°
2026-05-05 19:12 63.62141 25.39347 37485 ft 431 kts 187°
2026-05-05 19:12 63.59140 25.39181 37841 ft 431 kts 187°
2026-05-05 19:12 63.56138 25.39018 38181 ft 431 kts 187°
2026-05-05 19:13 63.53178 25.38860 38437 ft 431 kts 187°
2026-05-05 19:13 63.50137 25.38702 38619 ft 432 kts 186°
2026-05-05 19:13 63.44143 25.38409 38690 ft 433 kts 186°
2026-05-05 19:14 63.38115 25.38114 38690 ft 433 kts 186°
2026-05-05 19:14 63.32084 25.37806 38695 ft 434 kts 186°
2026-05-05 19:15 63.26048 25.37496 38696 ft 434 kts 187°
2026-05-05 19:15 63.20009 25.37180 38711 ft 434 kts 187°
2026-05-05 19:16 63.13967 25.36861 38712 ft 434 kts 187°
2026-05-05 19:16 63.07920 25.36556 38718 ft 434 kts 186°
2026-05-05 19:17 63.01900 25.36263 38688 ft 434 kts 186°
2026-05-05 19:17 62.95857 25.35978 38711 ft 434 kts 187°
2026-05-05 19:18 62.89825 25.35681 38723 ft 433 kts 187°
2026-05-05 19:18 62.83795 25.35381 38728 ft 433 kts 187°
2026-05-05 19:19 62.77776 25.35066 38714 ft 432 kts 187°
2026-05-05 19:19 62.71763 25.34760 38728 ft 432 kts 187°
2026-05-05 19:20 62.65760 25.34462 38720 ft 431 kts 187°
2026-05-05 19:20 62.59799 25.34168 38732 ft 430 kts 187°
2026-05-05 19:21 62.53812 25.33866 38737 ft 430 kts 187°
2026-05-05 19:21 62.47823 25.33587 38739 ft 430 kts 187°
2026-05-05 19:22 62.41842 25.33307 38742 ft 430 kts 187°
2026-05-05 19:22 62.35870 25.33010 38741 ft 429 kts 187°
2026-05-05 19:23 62.29893 25.32717 38744 ft 429 kts 187°
2026-05-05 19:23 62.23923 25.32430 38746 ft 429 kts 187°
2026-05-05 19:24 62.17925 25.32142 38747 ft 429 kts 187°
2026-05-05 19:24 62.11980 25.31866 38520 ft 432 kts 187°
2026-05-05 19:25 62.08991 25.31730 38275 ft 429 kts 187°
2026-05-05 19:25 62.06012 25.31597 37972 ft 427 kts 187°
2026-05-05 19:25 62.03047 25.31463 37685 ft 424 kts 187°
2026-05-05 19:25 62.00102 25.31321 37426 ft 422 kts 188°
2026-05-05 19:26 61.97173 25.31173 37161 ft 420 kts 188°
2026-05-05 19:26 61.94253 25.31024 36895 ft 419 kts 188°
2026-05-05 19:26 61.91335 25.30880 36655 ft 419 kts 188°
2026-05-05 19:26 61.88423 25.30743 36312 ft 419 kts 188°
2026-05-05 19:27 61.85515 25.30613 35724 ft 417 kts 189°
2026-05-05 19:27 61.82620 25.30483 35138 ft 415 kts 189°
2026-05-05 19:27 61.79732 25.30351 34545 ft 413 kts 190°
2026-05-05 19:27 61.76853 25.30214 33867 ft 414 kts 190°
2026-05-05 19:28 61.73981 25.30079 33132 ft 411 kts 191°
2026-05-05 19:28 61.71159 25.29951 32465 ft 408 kts 191°
2026-05-05 19:28 61.68332 25.29827 31769 ft 405 kts 191°
2026-05-05 19:28 61.65513 25.29710 31081 ft 402 kts 192°
2026-05-05 19:29 61.62727 25.29592 30393 ft 398 kts 192°
2026-05-05 19:29 61.59972 25.29474 29671 ft 392 kts 192°
2026-05-05 19:29 61.57269 25.29352 28952 ft 385 kts 193°
2026-05-05 19:29 61.54617 25.29231 28302 ft 378 kts 193°
2026-05-05 19:30 61.52010 25.29109 27658 ft 372 kts 193°
2026-05-05 19:30 61.49440 25.28988 27027 ft 367 kts 194°
2026-05-05 19:30 61.46904 25.28866 26406 ft 362 kts 194°
2026-05-05 19:30 61.44428 25.28749 25805 ft 358 kts 194°
2026-05-05 19:31 61.41955 25.28634 25209 ft 353 kts 194°
2026-05-05 19:31 61.39511 25.28522 24641 ft 349 kts 194°
2026-05-05 19:31 61.37093 25.28412 24030 ft 346 kts 194°
2026-05-05 19:31 61.34692 25.28301 23498 ft 345 kts 194°
2026-05-05 19:32 61.32287 25.28187 22962 ft 345 kts 194°
2026-05-05 19:32 61.29893 25.28070 22435 ft 344 kts 194°
2026-05-05 19:32 61.27510 25.27956 21924 ft 341 kts 194°
2026-05-05 19:32 61.25142 25.27842 21421 ft 339 kts 194°
2026-05-05 19:33 61.22796 25.27730 20900 ft 336 kts 194°
2026-05-05 19:33 61.20465 25.27627 20374 ft 334 kts 194°
2026-05-05 19:33 61.18152 25.27523 19838 ft 331 kts 193°
2026-05-05 19:33 61.15847 25.27418 19295 ft 329 kts 193°
2026-05-05 19:34 61.13564 25.27314 18749 ft 327 kts 193°
2026-05-05 19:34 61.11295 25.27211 18196 ft 325 kts 193°
2026-05-05 19:34 61.09041 25.27108 17600 ft 323 kts 193°
2026-05-05 19:35 61.04554 25.26902 16494 ft 322 kts 192°
2026-05-05 19:35 61.02316 25.26796 15983 ft 321 kts 191°
2026-05-05 19:35 61.00088 25.26693 15460 ft 321 kts 191°
2026-05-05 19:35 60.97882 25.26590 14948 ft 321 kts 190°
2026-05-05 19:36 60.95648 25.26485 14428 ft 321 kts 189°
2026-05-05 19:36 60.93404 25.26462 13903 ft 323 kts 186°
2026-05-05 19:36 60.91152 25.26548 13340 ft 324 kts 185°
2026-05-05 19:36 60.88905 25.26604 12748 ft 322 kts 185°
2026-05-05 19:37 60.86671 25.26638 12156 ft 321 kts 185°
2026-05-05 19:37 60.84444 25.26662 11557 ft 319 kts 184°
2026-05-05 19:37 60.82244 25.26693 11290 ft 309 kts 184°
2026-05-05 19:37 60.80142 25.26731 11151 ft 295 kts 184°
2026-05-05 19:38 60.78123 25.26763 10884 ft 287 kts 184°
2026-05-05 19:38 60.76134 25.26788 10462 ft 283 kts 184°
2026-05-05 19:38 60.74162 25.26812 9869 ft 284 kts 183°
2026-05-05 19:38 60.72184 25.26835 9388 ft 283 kts 183°
2026-05-05 19:39 60.70214 25.26860 8899 ft 282 kts 183°
2026-05-05 19:39 60.68258 25.26887 8419 ft 280 kts 182°
2026-05-05 19:39 60.66340 25.26913 7946 ft 278 kts 182°
2026-05-05 19:39 60.64409 25.26942 7466 ft 276 kts 183°
2026-05-05 19:40 60.62501 25.26968 7015 ft 273 kts 183°
2026-05-05 19:40 60.60611 25.26996 6549 ft 271 kts 182°
2026-05-05 19:40 60.58727 25.27028 6036 ft 269 kts 182°
2026-05-05 19:40 60.56856 25.27057 5516 ft 268 kts 182°
2026-05-05 19:41 60.54996 25.27080 4998 ft 267 kts 182°
2026-05-05 19:41 60.53170 25.27106 4749 ft 255 kts 183°
2026-05-05 19:41 60.51447 25.27136 4617 ft 241 kts 183°
2026-05-05 19:41 60.49815 25.27163 4480 ft 228 kts 183°
2026-05-05 19:42 60.48265 25.27188 4345 ft 218 kts 184°
2026-05-05 19:42 60.46798 25.26868 4135 ft 207 kts 202°
2026-05-05 19:42 60.45562 25.25544 3907 ft 198 kts 224°
2026-05-05 19:42 60.44618 25.23569 3646 ft 194 kts 232°
2026-05-05 19:43 60.43718 25.21553 3380 ft 191 kts 232°
2026-05-05 19:43 60.42833 25.19576 3111 ft 189 kts 232°
2026-05-05 19:43 60.41949 25.17598 2857 ft 189 kts 233°
2026-05-05 19:43 60.41067 25.15624 2611 ft 189 kts 233°
2026-05-05 19:44 60.40190 25.13662 2371 ft 186 kts 233°
2026-05-05 19:44 60.39336 25.11776 2109 ft 182 kts 232°
2026-05-05 19:44 60.38486 25.09946 1909 ft 173 kts 232°
2026-05-05 19:44 60.37691 25.08231 1612 ft 161 kts 234°
2026-05-05 19:45 60.36973 25.06634 1349 ft 146 kts 234°
2026-05-05 19:45 60.36323 25.05176 1160 ft 133 kts 235°
2026-05-05 19:45 60.35730 25.03815 956 ft 126 kts 234°
2026-05-05 19:45 60.35145 25.02512 781 ft 126 kts 233°
2026-05-05 19:46 60.34750 25.01652 675 ft 125 kts 232°
2026-05-05 19:46 60.34174 25.00370 498 ft 121 kts 232°
2026-05-05 19:46 60.33610 24.99118 343 ft 120 kts 231°
2026-05-05 19:46 60.33057 24.97892 201 ft 117 kts 231°
2026-05-05 19:47 60.32562 24.96783 172 ft 87 kts 227°
2026-05-05 19:47 60.32268 24.96142 177 ft 38 kts 227°
2026-05-05 19:47 60.32140 24.95862 176 ft 15 kts 228°
2026-05-05 19:47 60.32059 24.95809 174 ft 16 kts 163°
2026-05-05 19:48 60.31994 24.95904 172 ft 12 kts 137°
2026-05-05 19:48 60.31933 24.96018 169 ft 9 kts 137°
2026-05-05 19:48 60.31885 24.96105 165 ft 9 kts 137°
2026-05-05 19:48 60.31824 24.96109 164 ft 11 kts 219°
2026-05-05 19:49 60.31763 24.95980 164 ft 15 kts 227°
2026-05-05 19:49 60.31708 24.95856 164 ft 3 kts 229°
2026-05-05 19:49 60.31686 24.95851 164 ft 3 kts 158°
2026-05-05 19:49 60.31667 24.95881 164 ft 4 kts 140°
2026-05-05 19:50 60.31651 24.95916 164 ft 2 kts 130°
2026-05-05 19:50 60.31645 24.95930 164 ft 1 kts 130°
2026-05-05 19:50 60.31644 24.95933 164 ft 0 kts 130°